Location: LDNL
(36.4545°S, 141.6685°E)
Time: 16:24:10
(UTC+10:00)

Courier 1B Rocket - Pass Details

Date: 20 August 2022
Orbit: 920 x 1202 km, 28.2° (Epoch: 25 September)

Event Time Altitude Azimuth Distance (km) Brightness Sun altitude
Exits shadow 04:32:36 43° 3° (N) 1,623 6.0 -32.3°
Drops below altitude 10° 04:39:23 10° 61° (ENE) 3,121 8.2 -31.0°
Sets 04:42:20 0° 67° (ENE) 4,063 9.1 -30.4°
